COSMOS 2251 DEB, 33900

Orbit data source: Space-Track

COSMOS 2251 DEB, 33900 is space debris in LEO originally from a launch on Wed, 16 Jun 1993 UTC launched from the Plesetsk Missile And Space Complex (PKMTR). The debris from Iridium 33, an American commercial communications satellite, has been tracked extensively since its accidental collision with the defunct Russian satellite Cosmos 2251 in 2009. This event, occurring at high speed in low Earth orbit (LEO), generated thousands of pieces of space debris, significantly increasing the risk of further collisions. The Iridium 33 debris cloud has impacted space traffic management and orbital debris mitigation strategies, making it a subject of ongoing study in space situational awareness.

Loading next visibility...
Identifier
33900, 1993-036DD
Orbit
LEO
Country
Flag of CISCIS
Related business
Manufacturer
Unknown
Mission
Spacecraft
Bus & Motor
Unknown
Mass
Unknown
Launch date (UTC)
1993-06-16 (33 years ago)
Launch vehicle
Unknown
Launch site
Plesetsk Missile And Space Complex (PKMTR)
Object type
Payload
Rocket body
Debris
Shape & HBR
Unknown shape, 0.2 m
Radar Cross Section
Medium (>0.1 m² and <1 m²)

Expand to show TLE details & history
Last TLE update: 11 hours ago

TLE from 11 hours ago
0 COSMOS 2251 DEB
1 33900U 93036DD  26168.00302241  .00001459  00000-0  31157-3 0  9990
2 33900  74.0179   4.7448 0047430 109.1698  13.7660 14.59091697917522
Epoch: 2026-06-17T00:04Z
TLE epoch observation values (Epoch: 2026-06-17T00:04:21.136Z)
Latitude
53.7837°
Longitude
-104.50127°
Altitude
672.005 km
Speed
7.544 km/s
True Right ascension
10h 47m 24s
True Declination
53° 37' 03"
Sunlit
Object was in daylight at epoch
Visualization orbit readout
Latitude
Unknown
Longitude
Unknown
Altitude
Unknown
Speed
Unknown
Apparent Right ascension
Unknown
Apparent Declination
Unknown
Sunlit
N/A
Visualization observer readout
Local Sidereal Time
21:18:50
Azimuth
Unknown
Elevation
Unknown
Doppler factor
Unknown
Orbital elements
Apogee altitude
727.25 km
Perigee altitude
660.167 km
Semi-major axis
7,071.845 km
Eccentricity
0.00474
Inclination
74.0179°
RAAN
4.7448°
Arg. of periapsis
109.1698°
True anomaly
13.89608°
Mean anomaly
13.766°
Eccentric anomaly
13.83097°
Mean motion
3.64959 °/min
Orbital period
98.64 mins
BSTAR
0.00031157
Loading maneuver chart data...
Computing Atmospheric mass density...

Documentation

Showing up to 5 results
|